[[{"header":{"parameterUnit":"m.s-1","parameterCategory":1,"la1":30.2991,"la2":30.254,"lo1":-89.0895,"lo2":-89.0444,"dy":0.0017,"dx":0.0017,"nx":28,"ny":28,"refTime":"2023-08-02T03:00:00:Z","depth":0,"parameterNumber":2,"parameterNumberName":"U-component_of_WINDS"},"data":[0,0,0,0,0,0,0,0,0,0,0,0,0,0,0,0,0,0,0,0,0,0,0,0,0,0,0,0,0,0,0,0,0,0,0,0,0,0,0,0,0,0,0,0,0,0,0,0,0,0,0,0,0,0,0,0,0,0,0.8039,0.8039,0,0.8022,0.8022,0.8022,0.7978,0.7977,0.7976,0.7975,0.7958,0.7958,0.7959,0,0,0,0,0,0,0,0,0,0,0,0,0,0.8035,0.8036,0.804,0.8039,0.8039,0.8022,0.8022,0.8022,0.7978,0.7977,0.7975,0.7974,0.7958,0.7958,0.7959,0,0,0,0,0,0,0,0,0,0,0,0,0,0.803,0.8036,0.804,0.8015,0.8013,0.8022,0.8022,0.8022,0.7978,0.7977,0.7975,0.7974,0.7957,0.7958,0.7959,0.7991,0,0,0.7961,0.7961,0,0,0,0,0,0,0,0,0.803,0.803,0.8019,0.8017,0.8014,0.8001,0.8014,0.8012,0.7978,0.7991,0.7975,0.7973,0.7973,0.7972,0.7972,0.799,0.799,0.7961,0.7961,0.7961,0.7962,0,0,0,0,0,0,0,0.803,0.803,0.8033,0.8019,0.8016,0.8005,0.8003,0.8014,0.799,0.799,0.7987,0.7985,0.7972,0.7972,0.7972,0.7989,0.7961,0.7961,0.7962,0.7962,0.8034,0.8035,0,0,0,0,0,0,0.8034,0.8031,0.8033,0.8032,0.8019,0.8006,0.8004,0.8006,0.799,0.7986,0.7986,0.7983,0.7971,0.7971,0.7971,0.8008,0.7961,0.7962,0.7962,0.8033,0.8034,0.8036,0,0,0,0,0,0,0.8034,0.8035,0.8034,0.8031,0.803,0.8008,0.8011,0.8007,0.8007,0.7987,0.7983,0.7991,0.797,0.797,0.7987,0.8007,0.7962,0.7963,0.8031,0.8033,0.8035,0.8083,0,0,0,0,0,0,0.8034,0.8035,0.8047,0.8031,0.803,0.805,0.8013,0.8007,0.8008,0.8004,0.799,0.7987,0.7969,0.7986,0.7987,0.8007,0.7963,0.8029,0.8032,0.8034,0.808,0.8087,0.8093,0,0,0,0,0,0.8034,0.8061,0.8048,0.8048,0.8044,0.8051,0.805,0.8029,0.801,0.8022,0.8009,0.7987,0.8005,0.7988,0.7989,0.801,0.8027,0.8031,0.8034,0.8077,0.8085,0.8093,0,0,0,0,0,0,0.8079,0.8058,0.8043,0.8066,0.8061,0.8043,0.8058,0.8039,0.8039,0.8035,0.8009,0.8006,0.8027,0.802,0.8002,0.8041,0.8012,0.8016,0.8044,0.8053,0.8059,0.806,0.7964,0,0,0,0,0,0.8092,0.8099,0.808,0.8102,0.81,0.808,0.8082,0.8066,0.8059,0.8057,0.8046,0.8041,0.8045,0.8048,0.8051,0.8079,0.8075,0.8093,0.81,0.8105,0.8109,0.8124,0.8132,0.8047,0.8047,0.8047,0,0,0.8118,0.8107,0.8113,0.8111,0.8105,0.8113,0.8078,0.8088,0.8094,0.8058,0.8074,0.8065,0.8058,0.808,0.809,0.8075,0.8132,0.811,0.8114,0.8115,0.8128,0.8136,0.8144,0.805,0.8049,0.8049,0,0,0.8169,0.8162,0.8179,0.8174,0.8166,0.8152,0.8157,0.8143,0.8136,0.8151,0.8125,0.8132,0.8139,0.8135,0.8134,0.8186,0.8166,0.8188,0.8222,0.8237,0.8244,0.825,0.8269,0.8276,0.8191,0.8191,0.8192,0,0.8203,0.8214,0.8191,0.8203,0.8203,0.8171,0.8189,0.8185,0.8179,0.818,0.8163,0.8173,0.8166,0.8187,0.82,0.82,0.8205,0.8189,0.8245,0.825,0.8255,0.8273,0.828,0.8194,0.8194,0.8194,0.8193,0,0.8256,0.8264,0.8279,0.8273,0.8275,0.829,0.827,0.8274,0.8259,0.8247,0.8263,0.8253,0.8254,0.8258,0.8243,0.8278,0.8269,0.8249,0.8221,0.8267,0.8283,0.829,0.8198,0.8197,0.8196,0.8196,0,0,0.8334,0.8317,0.8323,0.832,0.8309,0.8315,0.8329,0.833,0.8335,0.8331,0.8343,0.835,0.8332,0.8331,0.8315,0.8328,0.8371,0.8307,0.8306,0.832,0.841,0.8425,0.8433,0.8357,0.8359,0.836,0.841,0,0.8383,0.8406,0.8386,0.8412,0.842,0.8391,0.8403,0.8398,0.8388,0.8394,0.8382,0.8388,0.8364,0.8363,0.8375,0.8363,0.8388,0.8359,0.8368,0.8369,0.8371,0.8442,0.8457,0.8506,0.8417,0.8418,0.8418,0,0.8443,0.8443,0.847,0.8458,0.8461,0.8472,0.8472,0.8477,0.8471,0.8463,0.8463,0.8443,0.8457,0.8429,0.8448,0.8428,0.8431,0.8426,0.8427,0.8427,0.8397,0.8444,0.8521,0.8528,0.8428,0.8427,0.8427,0,0.8499,0.8505,0.8523,0.8521,0.8508,0.8516,0.8511,0.8504,0.8506,0.8506,0.8507,0.8509,0.851,0.8511,0.8494,0.8475,0.8515,0.8485,0.8509,0.8509,0.8519,0.8518,0.8597,0.852,0.852,0.852,0.8519,0,0.8556,0.8574,0.8547,0.8558,0.8578,0.8555,0.8575,0.8567,0.8561,0.857,0.8545,0.8554,0.853,0.8537,0.8523,0.8541,0.8541,0.8536,0.8532,0.8538,0.8539,0.854,0.8536,0.8522,0.8521,0.8521,0.852,0,0.8621,0.8604,0.8621,0.8607,0.8604,0.8619,0.8607,0.8617,0.8606,0.8618,0.8619,0.8601,0.8608,0.859,0.8594,0.8585,0.8611,0.8602,0.8613,0.8611,0.8636,0.8634,0.8718,0.8728,0.8644,0.8645,0.8646,0,0.8658,0.8671,0.8659,0.8664,0.866,0.8667,0.8669,0.8648,0.8651,0.8646,0.8657,0.8662,0.8664,0.8677,0.8664,0.8668,0.8658,0.8688,0.8659,0.8665,0.8659,0.8659,0.8661,0.8694,0.8695,0.8695,0.8696,0,0.8727,0.8718,0.8722,0.8724,0.8727,0.8727,0.8726,0.8731,0.8708,0.8713,0.872,0.8722,0.8727,0.8732,0.8733,0.8728,0.8709,0.8706,0.8711,0.8718,0.8724,0.8722,0.863,0.8704,0.8703,0.8702,0.8702,0.8702,0.8779,0.879,0.8784,0.8789,0.8786,0.8785,0.8794,0.8784,0.8789,0.8791,0.8779,0.8788,0.8783,0.8782,0.8779,0.8787,0.8774,0.8782,0.8784,0.8787,0.8791,0.8723,0.8787,0.8787,0.8787,0.8786,0.8786,0,0.8847,0.8842,0.8847,0.8846,0.8851,0.8832,0.883,0.8835,0.8844,0.8841,0.8844,0.8853,0.8858,0.8847,0.885,0.8859,0.885,0.8861,0.886,0.8859,0.8802,0.8797,0.8868,0.8868,0.8868,0.8867,0.8867,0.8867,0.8883,0.8901,0.8891,0.8908,0.8902,0.8911,0.8912,0.8911,0.8909,0.8919,0.8924,0.8916,0.891,0.8913,0.8917,0.8914,0.8917,0.893,0.8924,0.8871,0.8863,0.8856,0.8851,0.8931,0.8931,0.898,0.8981,0.8981]},{"header":{"parameterUnit":"m.s-1","parameterCategory":1,"la1":30.2991,"la2":30.254,"lo1":-89.0895,"lo2":-89.0444,"dy":0.0017,"dx":0.0017,"nx":28,"ny":28,"refTime":"2023-08-02T03:00:00:Z","depth":0,"parameterNumber":3,"parameterNumberName":"V-component_of_WINDS"},"data":[0,0,0,0,0,0,0,0,0,0,0,0,0,0,0,0,0,0,0,0,0,0,0,0,0,0,0,0,0,0,0,0,0,0,0,0,0,0,0,0,0,0,0,0,0,0,0,0,0,0,0,0,0,0,0,0,0,0,-1.6361,-1.6362,0,-1.6437,-1.6438,-1.6439,-1.646,-1.6459,-1.6459,-1.6458,-1.6537,-1.6539,-1.6541,0,0,0,0,0,0,0,0,0,0,0,0,0,-1.6233,-1.6235,-1.6361,-1.6362,-1.6363,-1.6437,-1.6438,-1.6439,-1.646,-1.6459,-1.6459,-1.6458,-1.6536,-1.6539,-1.6542,0,0,0,0,0,0,0,0,0,0,0,0,0,-1.6297,-1.6236,-1.6361,-1.6382,-1.6385,-1.6437,-1.6438,-1.644,-1.646,-1.6459,-1.6459,-1.6458,-1.6535,-1.6538,-1.6542,-1.6579,0,0,-1.6554,-1.6555,0,0,0,0,0,0,0,0,-1.6293,-1.6302,-1.6378,-1.6381,-1.6384,-1.6438,-1.6422,-1.6486,-1.646,-1.6431,-1.6458,-1.6458,-1.6504,-1.6511,-1.6526,-1.6582,-1.6586,-1.6554,-1.6556,-1.6558,-1.6559,0,0,0,0,0,0,0,-1.6289,-1.6299,-1.6391,-1.6379,-1.6383,-1.6388,-1.6396,-1.6434,-1.6471,-1.6434,-1.6435,-1.6444,-1.6506,-1.6523,-1.6528,-1.6587,-1.6554,-1.6557,-1.6559,-1.6561,-1.6677,-1.6678,0,0,0,0,0,0,-1.6281,-1.6295,-1.6389,-1.6393,-1.6336,-1.6391,-1.64,-1.6421,-1.647,-1.6477,-1.6445,-1.6445,-1.6517,-1.6524,-1.6531,-1.6577,-1.6558,-1.6561,-1.6563,-1.6676,-1.6677,-1.6678,0,0,0,0,0,0,-1.6278,-1.6289,-1.6386,-1.6345,-1.6357,-1.6394,-1.6418,-1.6423,-1.644,-1.6479,-1.6485,-1.6455,-1.6516,-1.6526,-1.6567,-1.658,-1.6563,-1.6566,-1.6675,-1.6677,-1.6678,-1.667,0,0,0,0,0,0,-1.6274,-1.6288,-1.6302,-1.6345,-1.6359,-1.642,-1.6418,-1.6425,-1.6447,-1.6448,-1.649,-1.6497,-1.6517,-1.6561,-1.6571,-1.6585,-1.6569,-1.6674,-1.6676,-1.6677,-1.6669,-1.6671,-1.6672,0,0,0,0,0,-1.627,-1.6297,-1.6303,-1.6314,-1.6378,-1.6421,-1.6429,-1.6451,-1.6448,-1.6462,-1.6487,-1.6495,-1.6577,-1.6565,-1.6576,-1.6592,-1.6673,-1.6675,-1.6677,-1.6668,-1.667,-1.6672,0,0,0,0,0,0,-1.6254,-1.6303,-1.631,-1.6351,-1.6382,-1.6424,-1.6443,-1.6453,-1.6485,-1.6484,-1.6511,-1.652,-1.6559,-1.658,-1.6565,-1.663,-1.6626,-1.663,-1.6615,-1.6617,-1.6619,-1.6613,-1.6572,0,0,0,0,0,-1.6256,-1.6286,-1.6327,-1.636,-1.6375,-1.6406,-1.6426,-1.644,-1.6473,-1.6486,-1.6514,-1.6545,-1.6578,-1.6599,-1.6631,-1.6672,-1.6682,-1.6689,-1.669,-1.6691,-1.6694,-1.6718,-1.6721,-1.6684,-1.6684,-1.6684,0,0,-1.6259,-1.6289,-1.6307,-1.6358,-1.6383,-1.6414,-1.6417,-1.645,-1.6473,-1.6491,-1.6531,-1.6553,-1.6589,-1.663,-1.665,-1.6649,-1.6707,-1.6694,-1.6694,-1.6697,-1.672,-1.6724,-1.6727,-1.6686,-1.6686,-1.6685,0,0,-1.6281,-1.6307,-1.6337,-1.6363,-1.6401,-1.6422,-1.6429,-1.647,-1.6485,-1.6526,-1.654,-1.6568,-1.6625,-1.665,-1.667,-1.6703,-1.6712,-1.6713,-1.672,-1.6743,-1.6746,-1.6749,-1.676,-1.6764,-1.6716,-1.6716,-1.6716,0,-1.628,-1.6328,-1.6351,-1.6384,-1.6406,-1.6424,-1.6454,-1.6478,-1.6525,-1.654,-1.6538,-1.6609,-1.6635,-1.6682,-1.669,-1.6706,-1.6715,-1.6708,-1.6744,-1.6747,-1.6749,-1.6761,-1.6765,-1.6716,-1.6716,-1.6716,-1.6716,0,-1.6325,-1.6358,-1.6377,-1.6422,-1.6447,-1.6478,-1.6507,-1.6529,-1.6541,-1.6563,-1.6604,-1.6636,-1.6675,-1.6688,-1.6701,-1.6738,-1.6736,-1.6738,-1.6734,-1.6752,-1.6763,-1.6768,-1.6716,-1.6716,-1.6716,-1.6716,0,0,-1.6338,-1.6396,-1.6403,-1.6424,-1.6468,-1.6494,-1.6526,-1.6565,-1.6583,-1.6615,-1.6643,-1.669,-1.6693,-1.6716,-1.6733,-1.6752,-1.6776,-1.6753,-1.6754,-1.6756,-1.6819,-1.6816,-1.682,-1.6783,-1.6783,-1.6784,-1.6815,0,-1.6365,-1.6424,-1.6446,-1.6494,-1.6525,-1.6543,-1.6571,-1.6601,-1.6622,-1.6651,-1.6674,-1.6707,-1.6709,-1.6723,-1.6744,-1.6769,-1.6789,-1.6767,-1.6809,-1.681,-1.6798,-1.6826,-1.6823,-1.6851,-1.682,-1.6821,-1.6821,0,-1.6405,-1.6437,-1.6488,-1.6528,-1.6542,-1.6567,-1.6604,-1.6632,-1.6667,-1.6681,-1.6707,-1.6722,-1.6757,-1.6751,-1.6799,-1.6784,-1.6803,-1.6818,-1.6819,-1.6824,-1.6816,-1.6831,-1.6861,-1.6865,-1.6828,-1.6828,-1.6827,0,-1.6409,-1.6465,-1.6503,-1.652,-1.6569,-1.6586,-1.6607,-1.6641,-1.6663,-1.6696,-1.671,-1.6747,-1.6766,-1.6794,-1.6819,-1.6813,-1.6865,-1.6862,-1.6878,-1.6877,-1.6888,-1.6886,-1.692,-1.69,-1.69,-1.69,-1.69,0,-1.6436,-1.6467,-1.6506,-1.6529,-1.6563,-1.659,-1.6623,-1.6645,-1.6676,-1.6703,-1.6721,-1.6747,-1.6778,-1.6808,-1.6828,-1.6865,-1.6874,-1.6886,-1.6891,-1.6884,-1.6883,-1.6896,-1.6895,-1.6901,-1.6901,-1.6901,-1.6901,0,-1.6447,-1.6474,-1.6516,-1.6559,-1.657,-1.6594,-1.663,-1.6654,-1.6676,-1.6711,-1.672,-1.6755,-1.6791,-1.6819,-1.6866,-1.6879,-1.6919,-1.6924,-1.6907,-1.6909,-1.6924,-1.6922,-1.6967,-1.6974,-1.695,-1.695,-1.695,0,-1.6462,-1.6486,-1.6531,-1.6551,-1.6572,-1.6604,-1.6626,-1.6653,-1.6676,-1.6718,-1.6736,-1.6774,-1.6805,-1.6862,-1.6891,-1.6928,-1.6934,-1.6947,-1.6939,-1.6932,-1.6934,-1.6932,-1.6934,-1.6948,-1.6948,-1.6948,-1.6948,0,-1.6487,-1.6499,-1.6531,-1.6568,-1.6594,-1.6624,-1.6655,-1.667,-1.6703,-1.6727,-1.6765,-1.6789,-1.6837,-1.6874,-1.6914,-1.6935,-1.6947,-1.6951,-1.6956,-1.6949,-1.6938,-1.6944,-1.6909,-1.6949,-1.6949,-1.6949,-1.6949,-1.6949,-1.65,-1.6522,-1.6557,-1.6592,-1.6618,-1.6646,-1.667,-1.6695,-1.6727,-1.6768,-1.6782,-1.6821,-1.6856,-1.691,-1.6932,-1.6963,-1.6963,-1.6971,-1.6973,-1.6975,-1.6974,-1.6934,-1.697,-1.697,-1.697,-1.697,-1.697,0,-1.6525,-1.6549,-1.6581,-1.6623,-1.665,-1.6659,-1.6694,-1.6716,-1.675,-1.6781,-1.6812,-1.6855,-1.6891,-1.6924,-1.6962,-1.698,-1.6986,-1.6989,-1.6988,-1.6992,-1.6972,-1.6963,-1.6983,-1.6983,-1.6983,-1.6983,-1.6983,-1.6983,-1.6541,-1.6579,-1.6596,-1.6646,-1.667,-1.6708,-1.6727,-1.6753,-1.6778,-1.6826,-1.6856,-1.6877,-1.6909,-1.6949,-1.6983,-1.6992,-1.7005,-1.7006,-1.7016,-1.6996,-1.6994,-1.6992,-1.6984,-1.7009,-1.7009,-1.7034,-1.7034,-1.7035]}]]